TimeCEST,TemperatureF,Dew PointF,Humidity,Sea Level PressureIn,VisibilityMPH,Wind Direction,Wind SpeedMPH,Gust SpeedMPH,PrecipitationIn,Events,Conditions,WindDirDegrees,DateUTC
12:00 AM,44,44,100,29.86,0,SSW,2.2,,,Fog,Partial Fog,210,2013-05-18 22:00:00
12:20 AM,41.0,41.0,100,29.83,0.2,ENE,2.3,-,N/A,Fog,Fog,60,2013-05-18 22:20:00
12:50 AM,41.0,41.0,100,29.83,0.4,NE,2.3,-,N/A,Fog,Fog,40,2013-05-18 22:50:00
1:00 AM,42,41,95,29.86,0,NE,2.2,,,Fog,Partial Fog,40,2013-05-18 23:00:00
1:20 AM,39.2,39.2,100,29.83,0.6,Variable,1.2,-,N/A,Fog,Fog,0,2013-05-18 23:20:00
1:50 AM,41.0,41.0,100,29.83,0.2,Variable,2.3,-,N/A,Fog,Fog,0,2013-05-18 23:50:00
2:00 AM,42,41,94,29.86,0,ENE,2.2,,,Fog,Partial Fog,60,2013-05-19 00:00:00
2:20 AM,42.8,42.8,100,29.83,0.7,NE,3.5,-,N/A,Fog,Patches of Fog,50,2013-05-19 00:20:00
2:50 AM,39.2,39.2,100,29.83,0.5,Variable,2.3,-,N/A,Fog,Fog,0,2013-05-19 00:50:00
3:00 AM,40,39,95,29.86,0,ENE,2.2,,,Fog,Partial Fog,60,2013-05-19 01:00:00
3:20 AM,39.2,39.2,100,29.83,0.3,Variable,1.2,-,N/A,Fog,Fog,0,2013-05-19 01:20:00
3:50 AM,37.4,37.4,100,29.83,0.4,Variable,2.3,-,N/A,Fog,Fog,0,2013-05-19 01:50:00
4:00 AM,38,37,96,29.86,0,NNE,2.2,,,Fog,Partial Fog,30,2013-05-19 02:00:00
4:20 AM,41.0,41.0,100,29.83,1.1,NNE,2.3,-,N/A,Fog,Patches of Fog,30,2013-05-19 02:20:00
4:50 AM,41.0,41.0,100,29.83,1.7,Variable,1.2,-,N/A,Fog,Patches of Fog,0,2013-05-19 02:50:00
5:00 AM,41,40,96,29.85,1,NE,2.2,,,Fog,Patches of Fog,40,2013-05-19 03:00:00
5:20 AM,39.2,39.2,100,29.83,0.6,WSW,2.3,-,N/A,Fog,Patches of Fog,250,2013-05-19 03:20:00
5:50 AM,39.2,39.2,100,29.83,0.2,SW,1.2,-,N/A,Fog,Fog,220,2013-05-19 03:50:00
6:00 AM,38,38,100,29.85,0,Calm,Calm,,,Fog,Partial Fog,,2013-05-19 04:00:00
6:20 AM,37.4,37.4,100,29.83,0.4,SW,1.2,-,N/A,Fog,Fog,220,2013-05-19 04:20:00
6:50 AM,41.0,41.0,100,29.83,2.2,Variable,1.2,-,N/A,Fog,Patches of Fog,0,2013-05-19 04:50:00
7:00 AM,41,40,96,29.85,1,NW,2.2,,,Fog,Light Fog,310,2013-05-19 05:00:00
7:20 AM,44.6,44.6,100,29.83,6.2,Variable,1.2,-,N/A,Fog,Shallow Fog,0,2013-05-19 05:20:00
7:50 AM,48.2,46.4,93,29.83,-9999.0,North,3.5,-,N/A,,Clear,10,2013-05-19 05:50:00
8:00 AM,49,47,91,29.85,6,North,2.2,,,,Partly Cloudy,0,2013-05-19 06:00:00
8:20 AM,51.8,48.2,88,29.83,-9999.0,NNE,3.5,-,N/A,,Clear,30,2013-05-19 06:20:00
8:50 AM,53.6,48.2,82,29.83,-9999.0,NE,5.8,-,N/A,,Clear,50,2013-05-19 06:50:00
9:00 AM,53,47,72,29.84,7,NE,4.5,,,,Clear,40,2013-05-19 07:00:00
9:20 AM,55.4,50.0,82,29.83,-9999.0,ENE,6.9,-,N/A,,Clear,60,2013-05-19 07:20:00
9:50 AM,55.4,46.4,72,29.80,-9999.0,NE,6.9,-,N/A,,Clear,50,2013-05-19 07:50:00
10:00 AM,55,47,66,29.83,9,NE,6.7,,,,Scattered Clouds,40,2013-05-19 08:00:00
10:20 AM,55.4,48.2,77,29.80,6.2,NE,8.1,-,N/A,,Partly Cloudy,40,2013-05-19 08:20:00
10:50 AM,57.2,50.0,77,29.80,6.2,NNE,8.1,-,N/A,,Partly Cloudy,20,2013-05-19 08:50:00
11:00 AM,57,48,64,29.82,9,North,8.9,,,,Scattered Clouds,10,2013-05-19 09:00:00
11:20 AM,57.2,50.0,77,29.80,6.2,NNE,8.1,-,N/A,,Partly Cloudy,20,2013-05-19 09:20:00
11:50 AM,59.0,50.0,72,29.80,6.2,North,8.1,-,N/A,,Partly Cloudy,360,2013-05-19 09:50:00
12:00 PM,59,51,67,29.81,9,North,11.2,,,,Scattered Clouds,350,2013-05-19 10:00:00
12:20 PM,59.0,48.2,67,29.77,6.2,NNE,8.1,-,N/A,,Partly Cloudy,20,2013-05-19 10:20:00
12:50 PM,60.8,50.0,68,29.77,6.2,NNE,8.1,-,N/A,,Partly Cloudy,20,2013-05-19 10:50:00
1:00 PM,60,50,61,29.80,9,North,8.9,,,,Scattered Clouds,10,2013-05-19 11:00:00
1:20 PM,60.8,51.8,72,29.77,6.2,North,9.2,-,N/A,,Scattered Clouds,360,2013-05-19 11:20:00
1:50 PM,60.8,50.0,68,29.77,6.2,North,9.2,-,N/A,,Scattered Clouds,10,2013-05-19 11:50:00
2:00 PM,60,50,61,29.80,9,North,11.2,,,,Partly Cloudy,350,2013-05-19 12:00:00
2:20 PM,60.8,50.0,68,29.77,6.2,North,9.2,-,N/A,,Scattered Clouds,10,2013-05-19 12:20:00
2:50 PM,60.8,51.8,72,29.77,6.2,North,9.2,-,N/A,,Mostly Cloudy,360,2013-05-19 12:50:00
3:00 PM,60,50,60,29.80,6,NNE,11.2,,,,Partly Cloudy,20,2013-05-19 13:00:00
3:20 PM,60.8,50.0,68,29.77,6.2,NNE,8.1,-,N/A,,Mostly Cloudy,20,2013-05-19 13:20:00
3:50 PM,60.8,50.0,68,29.77,6.2,NNE,8.1,-,N/A,,Mostly Cloudy,30,2013-05-19 13:50:00
4:00 PM,61,50,57,29.79,6,NE,11.2,,,,Partly Cloudy,40,2013-05-19 14:00:00
4:20 PM,59.0,50.0,72,29.77,6.2,NE,9.2,-,N/A,,Mostly Cloudy,40,2013-05-19 14:20:00
4:50 PM,60.8,50.0,68,29.77,6.2,North,11.5,-,N/A,,Mostly Cloudy,10,2013-05-19 14:50:00
5:00 PM,60,50,60,29.78,6,North,8.9,,,,Scattered Clouds,10,2013-05-19 15:00:00
5:20 PM,60.8,50.0,68,29.77,6.2,NNE,8.1,-,N/A,,Mostly Cloudy,20,2013-05-19 15:20:00
5:50 PM,60.8,50.0,68,29.74,6.2,North,8.1,-,N/A,,Mostly Cloudy,10,2013-05-19 15:50:00
6:00 PM,60,49,58,29.77,6,North,8.9,,,,Partly Cloudy,0,2013-05-19 16:00:00
6:20 PM,59.0,50.0,72,29.74,6.2,North,9.2,-,N/A,,Scattered Clouds,360,2013-05-19 16:20:00
6:50 PM,59.0,50.0,72,29.74,6.2,NE,8.1,-,N/A,,Scattered Clouds,40,2013-05-19 16:50:00
7:00 PM,59,49,61,29.76,6,North,8.9,,,,Partly Cloudy,0,2013-05-19 17:00:00
7:20 PM,59.0,50.0,72,29.74,6.2,North,6.9,-,N/A,,Scattered Clouds,10,2013-05-19 17:20:00
7:50 PM,57.2,50.0,77,29.74,6.2,North,5.8,-,N/A,,Scattered Clouds,360,2013-05-19 17:50:00
8:00 PM,57,49,67,29.76,6,NNE,6.7,,,,Partly Cloudy,20,2013-05-19 18:00:00
8:20 PM,57.2,50.0,77,29.74,6.2,North,4.6,-,N/A,,Partly Cloudy,10,2013-05-19 18:20:00
8:50 PM,55.4,50.0,82,29.74,5.6,North,3.5,-,N/A,,Partly Cloudy,360,2013-05-19 18:50:00
9:00 PM,56,49,70,29.77,6,North,4.5,,,,Scattered Clouds,0,2013-05-19 19:00:00
9:20 PM,55.4,50.0,82,29.74,5.6,North,4.6,-,N/A,,Unknown,350,2013-05-19 19:20:00
9:50 PM,53.6,50.0,88,29.74,5.6,NNW,3.5,-,N/A,,Unknown,340,2013-05-19 19:50:00
10:00 PM,54,48,75,29.76,6,North,4.5,,,,Clear,350,2013-05-19 20:00:00
10:20 PM,51.8,50.0,94,29.74,-9999.0,NNW,2.3,-,N/A,,Clear,340,2013-05-19 20:20:00
10:50 PM,50.0,48.2,94,29.74,-9999.0,NNW,2.3,-,N/A,,Clear,330,2013-05-19 20:50:00
11:00 PM,50,47,86,29.77,6,NNW,2.2,,,,Clear,340,2013-05-19 21:00:00
11:20 PM,50.0,48.2,94,29.74,6.2,NW,3.5,-,N/A,,Scattered Clouds,320,2013-05-19 21:20:00
11:50 PM,51.8,50.0,94,29.74,6.2,NW,3.5,-,N/A,,Scattered Clouds,310,2013-05-19 21:50:00